Showing default

HISPASAT 1B, 22723

Orbit data source: Space-Track

HISPASAT 1B, 22723 is a payload satellite owned by Hispasat (ES) in GEO that was launched on Thu, 22 Jul 1993 UTC via an ARIANE 44L launch vehicle from the French Guiana (FRGUI). Payload-class satellites include a variety of spacecraft equipped with specific instruments for various scientific and technological missions. These include communications satellites like Starlink; space stations such as the ISS; scientific satellites like the Hubble; Earth observation satellites from companies like Planet Labs, Umbra, and HawkEye 360; GPS; miniature CubeSats for education and research; and military/defense satellites.

Not visible in the next 10 days
Identifier
22723, 1993-048A
Orbit
GEO
Country
Flag of ESES / SPN
Related business
Manufacturer
MMS/Toulouse
Mission
Non-operational Commercial Communications
Bus & Motor
EUROSTAR 2000, R-4D-11
Mass
2,206 kg wet, 1,050 kg dry
Launch date (UTC)
1993-07-22 (33 years ago)
Launch vehicle
ARIANE 44L
Launch site
French Guiana (FRGUI)
Object type
Payload
Rocket body
Debris
Shape & HBR
Hex Poly + 2 Pan, 1.3 m
Radar Cross Section
5.719 m², Large (>1 m²)

Expand to show TLE details & history
Last TLE update: 6 days ago

TLE from 6 days ago
0 HISPASAT 1B
1 22723U 93048A   26087.77775438 -.00000197  00000-0  00000-0 0  9999
2 22723  13.6594  13.6863 0008667 346.1848 202.7495  0.99717725119034
Epoch: 2026-03-28T18:39Z
TLE epoch observation values (Epoch: 2026-03-28T18:39:57.978Z)
Latitude
-2.09978°
Longitude
96.17531°
Altitude
35,976.484 km
Speed
3.067 km/s
True Right ascension
13h 29m 26s
True Declination
-2° 05' 52"
Sunlit
Object was in daylight at epoch
Visualization orbit readout
Latitude
Unknown
Longitude
Unknown
Altitude
Unknown
Speed
Unknown
Apparent Right ascension
Unknown
Apparent Declination
Unknown
Sunlit
N/A
Visualization observer readout
Local Sidereal Time
08:19:43
Azimuth
Unknown
Elevation
Unknown
Doppler factor
Unknown
Orbital elements
Apogee altitude
35,980.297 km
Perigee altitude
35,906.936 km
Semi-major axis
42,321.753 km
Eccentricity
0.00087
Inclination
13.6594°
RAAN
13.6863°
Arg. of periapsis
346.1848°
True anomaly
202.71113°
Mean anomaly
202.7495°
Eccentric anomaly
202.73031°
Mean motion
0.24929 °/min
Orbital period
1,444.13 mins
BSTAR
0
Loading maneuver chart data...
Computing Atmospheric mass density...
Loading historical data...
Loading historical data...
Loading historical data...
Loading historical data...
Loading historical data...
Loading historical data...
Loading historical data...
Other satellites on launch #48 in the year 1993 (1993-07-22 UTC)

Documentation

Showing up to 5 results
|